Time,TemperatureF,DewpointF,PressureIn,WindDirection,WindDirectionDegrees,WindSpeedMPH,WindSpeedGustMPH,Humidity,HourlyPrecipIn,Conditions,Clouds,dailyrainin,SoftwareType,DateUTC
2013-08-28 13:14:00,78.0,73.0,29.99,SE,136,0.0,1.0,85,0.00,,,0.00,,2013-08-28 17:14:00,
2013-08-28 13:24:00,79.0,70.0,29.99,East,89,1.0,1.0,75,0.00,,,0.00,,2013-08-28 17:24:00,
2013-08-28 13:52:00,80.0,71.0,29.99,ESE,105,1.0,3.0,75,0.00,,,0.00,,2013-08-28 17:52:00,
2013-08-28 14:12:00,81.0,71.0,29.99,East,83,1.0,5.0,72,0.00,,,0.00,,2013-08-28 18:12:00,
2013-08-28 14:22:00,81.0,68.0,29.99,NNE,13,1.0,2.0,64,0.00,,,0.00,,2013-08-28 18:22:00,
2013-08-28 14:42:00,78.0,68.0,30.00,SE,124,1.0,3.0,72,0.00,,,0.00,,2013-08-28 18:42:00,
2013-08-28 14:53:00,74.0,67.0,30.00,ESE,123,0.0,1.0,80,0.00,,,0.00,,2013-08-28 18:53:00,
2013-08-28 15:12:00,71.0,67.0,30.00,ESE,122,0.0,1.0,87,0.00,,,0.00,,2013-08-28 19:12:00,
2013-08-28 15:22:00,70.0,68.0,29.98,ESE,123,0.0,1.0,92,0.00,,,0.00,,2013-08-28 19:22:00,
2013-08-28 15:42:00,71.0,69.0,29.99,ESE,123,0.0,1.0,94,0.00,,,0.00,,2013-08-28 19:42:00,
2013-08-28 15:52:00,71.0,69.0,29.98,ESE,123,0.0,1.0,95,0.00,,,0.00,,2013-08-28 19:52:00,
2013-08-28 16:12:00,72.0,70.0,29.98,ESE,122,0.0,0.0,95,0.00,,,0.00,,2013-08-28 20:12:00,
2013-08-28 16:23:00,72.0,70.0,29.98,ESE,123,0.0,0.0,93,0.00,,,0.00,,2013-08-28 20:23:00,
2013-08-28 16:43:00,72.0,70.0,29.98,ESE,123,0.0,0.0,94,0.00,,,0.00,,2013-08-28 20:43:00,
2013-08-28 16:52:00,72.0,70.0,29.98,ESE,122,0.0,0.0,94,0.00,,,0.00,,2013-08-28 20:52:00,
2013-08-28 17:12:00,72.0,70.0,29.98,ESE,122,0.0,0.0,95,0.00,,,0.00,,2013-08-28 21:12:00,
2013-08-28 17:22:00,72.0,70.0,29.98,ESE,123,0.0,0.0,95,0.00,,,0.00,,2013-08-28 21:22:00,
2013-08-28 17:57:00,72.0,70.0,29.98,ESE,122,0.0,0.0,95,0.00,,,0.00,,2013-08-28 21:57:00,
2013-08-28 18:08:00,72.0,70.0,29.98,ESE,122,0.0,0.0,95,0.00,,,0.00,,2013-08-28 22:08:00,
2013-08-28 18:15:00,72.0,70.0,29.98,ESE,122,0.0,0.0,95,0.00,,,0.00,,2013-08-28 22:15:00,
2013-08-28 18:25:00,72.0,71.0,29.98,ESE,122,0.0,0.0,96,0.00,,,0.00,,2013-08-28 22:25:00,
2013-08-28 18:43:00,73.0,72.0,29.99,ESE,122,0.0,0.0,96,0.00,,,0.00,,2013-08-28 22:43:00,
2013-08-28 18:54:00,73.0,72.0,30.00,ESE,123,0.0,0.0,96,0.00,,,0.00,,2013-08-28 22:54:00,
2013-08-28 19:13:00,73.0,71.0,30.01,ESE,122,0.0,0.0,95,0.00,,,0.00,,2013-08-28 23:13:00,
2013-08-28 19:22:00,72.0,70.0,30.01,SE,124,0.0,0.0,95,0.00,,,0.00,,2013-08-28 23:22:00,
2013-08-28 19:42:00,72.0,70.0,30.01,SE,124,0.0,0.0,95,0.00,,,0.00,,2013-08-28 23:42:00,
2013-08-28 19:53:00,71.0,70.0,30.01,SE,124,0.0,0.0,96,0.00,,,0.00,,2013-08-28 23:53:00,
2013-08-28 20:12:00,71.0,70.0,30.02,SE,124,0.0,0.0,96,0.00,,,0.00,,2013-08-29 00:12:00,
2013-08-28 21:13:00,68.0,67.0,30.03,SE,136,0.0,0.0,96,0.00,,,0.00,,2013-08-29 01:13:00,
2013-08-28 21:22:00,68.0,67.0,30.04,SE,136,0.0,0.0,96,0.00,,,0.00,,2013-08-29 01:22:00,
2013-08-28 21:42:00,68.0,67.0,30.04,SE,136,0.0,0.0,97,0.00,,,0.00,,2013-08-29 01:42:00,
2013-08-28 21:52:00,68.0,67.0,30.05,SE,136,0.0,0.0,97,0.00,,,0.00,,2013-08-29 01:52:00,
2013-08-28 22:12:00,67.0,66.0,30.05,SE,136,0.0,0.0,97,0.00,,,0.00,,2013-08-29 02:12:00,
2013-08-28 22:22:00,67.0,66.0,30.05,SE,136,0.0,0.0,97,0.00,,,0.00,,2013-08-29 02:22:00,
2013-08-28 23:11:00,66.0,65.0,30.07,SE,136,0.0,0.0,97,0.00,,,0.00,,2013-08-29 03:11:00,
2013-08-28 23:23:00,66.0,65.0,30.09,SE,137,0.0,0.0,97,0.00,,,0.00,,2013-08-29 03:23:00,
2013-08-28 23:45:00,66.0,65.0,30.09,SW,225,0.0,3.0,95,0.00,,,0.00,,2013-08-29 03:45:00,
2013-08-28 23:57:00,65.0,63.0,30.10,ENE,59,2.0,3.0,94,0.00,,,0.00,,2013-08-29 03:57:00,